Location: Bremen
(53.0793°N, 8.8017°E)
Time: 13:53:52
(UTC+01:00)

Vanguard 1 Rocket - Pass Details

Date: 04 December 2021
Orbit: 651 x 4224 km, 34.3° (Epoch: 21 January)

Event Time Altitude Azimuth Distance (km) Brightness Sun altitude
Rises 04:42:58 0° 243° (WSW) 5,148 - -31.3°
Reaches altitude 10° 04:46:02 10° 236° (SW) 4,544 - -30.9°
Exits shadow 04:50:37 26° 219° (SW) 3,942 10.2 -30.2°
Maximum altitude 04:58:23 40° 173° (S) 3,971 10.5 -29.0°
Drops below altitude 10° 05:18:33 10° 115° (ESE) 7,249 12.8 -26.0°
Sets 05:25:14 0° 109° (ESE) 8,444 13.6 -25.0°
